Location: Waldport
(44.4270°N, 124.0680°W)
Time: 03:18:24
(UTC-07:00)

USA 238 DEB - Pass Details

Date: 23 June 2018
Orbit: 1059 x 1153 km, 63.4° (Epoch: 23 September)

Event Time Altitude Azimuth Distance (km) Brightness Sun altitude
Rises 22:37:21 0° 319° (NW) 3,944 8.8 -12.8°
Reaches altitude 10° 22:40:03 10° 316° (NW) 2,995 7.5 -13.1°
Maximum altitude 22:47:00 56° 241° (WSW) 1,333 4.2 -13.8°
Enters shadow 22:52:39 16° 168° (SSE) 2,573 5.1 -14.4°
